Location: Unspecified
(52.4292°N, 19.3359°E)
Time: 01:10:09
(UTC+02:00)

SR - Pass Details

Date: 01 June 2024
Orbit: 580 x 858 km, 66.7° (Epoch: 12 June)

Event Time Altitude Azimuth Distance (km) Brightness Sun altitude
Rises 22:25:05 0° 320° (NW) 2,921 ? -9.7°
Reaches altitude 10° 22:27:47 10° 335° (NNW) 1,974 ? -9.9°
Maximum altitude 22:31:21 24° 29° (NNE) 1,264 ? -10.2°
Drops below altitude 10° 22:34:49 10° 84° (E) 1,907 ? -10.5°
Enters shadow 22:37:03 - 98° (E) 2,676 ? -10.6°
Sets 22:37:23 0° 99° (E) 2,798 - -10.7°
